This is the latest recevied weather packets stored in our database for station/object KU4DD. If no packets are shown the sender has not sent any weather packets the latest 10 day(s).
| Time | Temp. | Humidity | Pressure | Rain* | Wind** | Luminosity | Snow |
|---|---|---|---|---|---|---|---|
| 1778167555 | 23.33° C | 56% | 995.3 hPa | 0 mm | - | - | - |
| 1778165720 | 23.33° C | 57% | 1007.1 hPa | 0 mm | - | - | - |
| 1778162538 | 22.22° C | 52% | 1007.5 hPa | 0 mm | - | - | - |
| 1778160994 | 22.78° C | 53% | 1007.1 hPa | 0 mm | - | - | - |
| 1778160378 | 22.78° C | 51% | 1007.1 hPa | 0 mm | - | - | - |
| 1778160059 | 22.78° C | 54% | 1006.8 hPa | 0 mm | - | - | - |
| 1778159068 | 23.89° C | 55% | 1006.4 hPa | 0 mm | - | - | - |
| 1778153543 | 22.22° C | 60% | 1008.1 hPa | 0 mm | - | - | - |
| 1778152603 | 22.22° C | 59% | 1007.8 hPa | 0 mm | - | - | - |
| 1778148013 | 21.67° C | 56% | 1007.5 hPa | 0 mm | - | - | - |
| 1778144035 | 22.22° C | 59% | 1007.8 hPa | 0 mm | - | - | - |
| 1778141585 | 22.22° C | 57% | 1008.5 hPa | 0 mm | - | - | - |
| 1778139759 | 22.22° C | 57% | 1008.5 hPa | 0 mm | - | - | - |
| 1778135162 | 22.78° C | 58% | 1008.8 hPa | 0 mm | - | - | - |
| 1778134237 | 22.78° C | 57% | 1009.5 hPa | 0 mm | - | - | - |
| 1778130837 | 22.78° C | 57% | 1010.8 hPa | 0 mm | - | - | - |
| 1778129315 | 22.78° C | 57% | 1010.5 hPa | 0 mm | - | - | - |
| 1778126840 | 23.33° C | 57% | 1009.5 hPa | 0 mm | - | - | - |
| 1778126225 | 23.33° C | 59% | 1010.2 hPa | 0 mm | - | - | - |
| 1778125302 | 23.33° C | 58% | 1009.5 hPa | 0 mm | - | - | - |
| 1778123765 | 23.33° C | 57% | 1009.8 hPa | 0 mm | - | - | - |
| 1778122505 | 23.33° C | 56% | 1009.5 hPa | 0 mm | - | - | - |
| 1778120969 | 23.33° C | 57% | 1009.5 hPa | 0 mm | - | - | - |
| 1778120338 | 23.33° C | 57% | 1009.5 hPa | 0 mm | - | - | - |
| 1778116358 | 22.78° C | 55% | 1009.5 hPa | 0 mm | - | - | - |
* Rain latest hour (hover to see other rain measurements)
** Current wind speed in m/s (hover to see current wind gust speed)